Location: Fontevrault
(47.1823°N, 0.0493°E)
Time: 09:03:03
(UTC+00:00)

Cosmos 1844 Rocket - Pass Details

Date: 16 June 2021
Orbit: 823 x 846 km, 71.0° (Epoch: 03 August)

Event Time Altitude Azimuth Distance (km) Brightness Sun altitude
Rises 20:34:19 0° 337° (NNW) 3,409 7.3 -5.5°
Reaches altitude 10° 20:36:58 10° 345° (NNW) 2,473 6.2 -5.9°
Maximum altitude 20:42:13 37° 53° (NE) 1,294 3.6 -6.5°
Drops below altitude 10° 20:47:26 10° 120° (ESE) 2,466 4.5 -7.1°
Enters shadow 20:48:00 - 122° (ESE) 2,658 4.7 -7.2°
